{"data":{"norad_id":66729,"intl_designator":"2025-276BR","name":"FLOCK 4H-26","alt_names":[],"object_type":"PAYLOAD","status":"ACTIVE","operator":null,"country":"US","launch_date":"2025-11-28","launch_site_code":"AFWTR","launch_vehicle":null,"mission":null,"orbit_class":"UNKNOWN","rcs_meters":null,"size_class":null,"mass_kg":null,"dimensions":null,"purposes":["earth_obs"],"wikipedia_slug":null,"has_3d_model":false,"image_url":null,"decayed_at":null,"tle_current":{"epoch":"2026-05-25T03:04:06.392064Z","epoch_age_seconds":63964,"freshness":"FRESH","line1":"1 66729U 25276BR  26145.12785176  .00005554  00000+0  26633-3 0  9998","line2":"2 66729  97.4195 218.9507 0006551  93.2719 266.9265 15.19284849 26912","mean_motion":15.19284849,"eccentricity":0.0006551,"inclination_deg":97.4195,"raan_deg":218.9507,"arg_perigee_deg":93.2719,"mean_anomaly_deg":266.9265,"bstar":0.00026633,"rev_number":2691,"period_min":94.781436209794,"perigee_km":503.4895990159,"apogee_km":512.51181664069,"semimajor_km":6886.1377078283,"source":"CELESTRAK","updated_at":"2026-05-25T13:38:13.371665Z"}}}